DW8565 Weather Reports


time (UTC)temp
C
wind
direction
speed
KPH
gust
KPH
rain 1hr
cm
rain 24hr
cm
rain mn
cm
humidity
%
barometer
mb
20260506211632 16 169 8.0 19.3 0.00 0.00 0.00 80 1007.6
20260506211132 16 178 8.0 19.3 0.00 0.00 0.00 81 1007.5
20260506210903 16 162 8.0 17.7 0.00 0.00 0.00 80 1007.5
20260506210130 16 163 9.7 20.9 0.00 0.00 0.00 80 1007.5
20260506205631 16 185 9.7 20.9 0.00 0.00 0.00 80 1007.4
20260506205130 16 162 8.0 20.9 0.00 0.00 0.00 81 1007.4
20260506204630 15 225 9.7 20.9 0.00 0.00 0.00 81 1007.3
20260506204131 16 190 9.7 20.9 0.00 0.00 0.00 81 1007.2
20260506203906 16 0 9.7 19.3 0.00 0.00 0.00 81 1007.3
20260506203130 16 204 9.7 19.3 0.00 0.00 0.00 80 1007.2
20260506202904 16 205 9.7 22.5 0.00 0.00 0.00 80 1007.3
20260506202125 16 189 9.7 20.9 0.00 0.00 0.00 80 1007.3
20260506201623 16 190 9.7 19.3 0.00 0.00 0.00 80 1007.4
20260506201123 16 236 9.7 20.9 0.00 0.00 0.00 79 1007.4
20260506200622 17 190 8.0 20.9 0.00 0.00 0.00 79 1007.5
20260506200121 16 214 8.0 17.7 0.00 0.00 0.00 80 1007.6
20260506195622 16 170 8.0 17.7 0.00 0.00 0.00 82 1007.8
20260506195122 16 188 8.0 17.7 0.00 0.00 0.00 82 1007.9
20260506194618 16 233 8.0 17.7 0.00 0.00 0.00 83 1008.0
20260506194118 15 152 8.0 17.7 0.00 0.00 0.00 82 1007.9
20260506193619 15 163 8.0 22.5 0.00 0.00 0.00 83 1008.0
20260506193116 15 178 8.0 22.5 0.00 0.00 0.00 83 1008.0
20260506192848 15 208 8.0 20.9 0.00 0.00 0.00 84 1008.0
20260506192116 15 180 8.0 20.9 0.00 0.00 0.00 85 1008.0
20260506191616 15 146 8.0 16.1 0.00 0.00 0.00 85 1008.0
20260506191116 15 163 9.7 19.3 0.00 0.00 0.00 86 1008.1
20260506190616 15 172 8.0 19.3 0.00 0.00 0.00 86 1008.2
20260506190117 15 215 8.0 20.9 0.00 0.00 0.00 88 1008.3
20260506185616 14 170 9.7 25.7 0.00 0.00 0.00 89 1008.4
20260506185110 14 222 9.7 25.7 0.00 0.00 0.00 88 1008.5
20260506184606 14 157 8.0 19.3 0.00 0.00 0.00 87 1008.5
20260506184108 15 178 9.7 19.3 0.00 0.00 0.00 87 1008.5
20260506183605 15 213 9.7 19.3 0.00 0.00 0.00 86 1008.6
20260506183107 15 187 9.7 19.3 0.00 0.00 0.00 86 1008.6
20260506182838 15 260 9.7 19.3 0.00 0.00 0.00 86 1008.8
20260506182107 14 181 9.7 24.1 0.00 0.00 0.00 86 1008.8
20260506181606 14 207 9.7 27.4 0.00 0.00 0.00 85 1008.9
20260506181107 15 252 9.7 27.4 0.00 0.00 0.00 84 1009.0
20260506180614 14 171 9.7 25.7 0.00 0.00 0.00 84 1008.9
20260506180607 14 241 9.7 22.5 0.00 0.00 0.00 84 1008.9
20260506175605 15 179 9.7 25.7 0.00 0.00 0.00 83 1009.0
20260506175106 15 163 9.7 20.9 0.00 0.00 0.00 84 1009.1
20260506174607 15 202 9.7 19.3 0.00 0.00 0.00 84 1009.4
20260506174338 15 148 11.3 19.3 0.00 0.00 0.00 84 1009.2
20260506173601 15 192 11.3 19.3 0.00 0.00 0.00 84 1009.3
20260506173055 15 138 11.3 25.7 0.00 0.00 0.00 84 1009.3
20260506172549 15 190 11.3 25.7 0.00 0.00 0.00 82 1009.3
20260506172044 15 211 11.3 24.1 0.00 0.00 0.00 81 1009.3
20260506171537 15 211 11.3 27.4 0.00 0.00 0.00 80 1009.4
20260506171029 15 178 9.7 27.4 0.00 0.00 0.00 80 1009.4
20260506170524 15 183 11.3 22.5 0.00 0.00 0.00 81 1009.5
20260506170019 15 199 11.3 22.5 0.00 0.00 0.00 82 1009.7
20260506165513 15 166 11.3 22.5 0.00 0.00 0.00 82 1009.9
20260506165007 15 198 11.3 30.6 0.00 0.00 0.00 81 1009.9
20260506164731 15 190 9.7 30.6 0.00 0.00 0.00 81 1010.1
20260506163955 15 177 9.7 24.1 0.00 0.00 0.00 81 1010.2
20260506163448 15 164 9.7 20.9 0.00 0.00 0.00 82 1010.4
20260506162942 15 202 8.0 20.9 0.00 0.00 0.00 82 1010.3
20260506162436 15 313 9.7 19.3 0.00 0.00 0.00 83 1010.5
20260506161930 15 238 9.7 19.3 0.00 0.00 0.00 83 1010.5
20260506161425 15 183 9.7 19.3 0.00 0.00 0.00 83 1010.6
20260506160918 14 0 8.0 16.1 0.00 0.00 0.00 83 1010.7
20260506160644 14 234 6.4 17.7 0.00 0.00 0.00 83 1010.7
20260506155907 14 201 8.0 17.7 0.00 0.00 0.00 83 1010.8
20260506155402 14 236 8.0 17.7 0.00 0.00 0.00 83 1010.8
20260506155126 14 227 8.0 24.1 0.00 0.00 0.00 83 1010.7
20260506154348 14 177 8.0 24.1 0.00 0.00 0.00 82 1010.8
20260506153842 14 208 9.7 22.5 0.00 0.00 0.00 82 1010.8
20260506153337 15 155 9.7 25.7 0.00 0.00 0.00 82 1010.8
20260506152830 15 171 8.0 25.7 0.00 0.00 0.00 81 1010.7
20260506152324 15 0 9.7 22.5 0.00 0.00 0.00 80 1010.9
20260506152050 15 194 9.7 24.1 0.00 0.00 0.00 80 1010.8
20260506151312 15 212 9.7 24.1 0.00 0.00 0.00 80 1010.8
20260506150806 15 169 9.7 22.5 0.00 0.00 0.00 81 1010.8
20260506150304 15 193 9.7 22.5 0.00 0.00 0.00 81 1010.9
20260506145755 15 121 8.0 20.9 0.00 0.00 0.00 80 1011.0
20260506145249 15 200 8.0 20.9 0.00 0.00 0.00 79 1011.0
20260506144742 15 163 9.7 20.9 0.00 0.00 0.00 79 1011.1
20260506144236 16 157 9.7 20.9 0.00 0.00 0.00 78 1011.0
20260506143730 16 166 8.0 19.3 0.00 0.00 0.00 77 1011.2
20260506143225 16 234 8.0 19.3 0.00 0.00 0.00 77 1011.2
20260506142949 16 200 9.7 19.3 0.00 0.00 0.00 78 1011.1
20260506142443 15 296 9.7 20.9 0.00 0.00 0.00 80 1011.1
20260506141706 15 190 8.0 22.5 0.00 0.00 0.00 80 1011.1
20260506141200 15 143 9.7 22.5 0.00 0.00 0.00 81 1011.1
20260506140926 15 171 9.7 17.7 0.00 0.00 0.00 81 1011.0
20260506140148 15 211 9.7 20.9 0.00 0.00 0.00 81 1011.0
20260506135643 15 212 9.7 22.5 0.00 0.00 0.00 80 1011.0
20260506135136 15 191 9.7 22.5 0.00 0.00 0.00 79 1011.0
20260506134629 16 167 9.7 24.1 0.00 0.00 0.00 79 1011.2
20260506134351 15 186 11.3 24.1 0.00 0.00 0.00 79 1011.2
20260506134226 15 175 9.7 24.1 0.00 0.00 0.00 80 1011.2
20260506133113 16 169 11.3 25.7 0.00 0.00 0.00 79 1011.4
20260506132606 16 265 12.9 30.6 0.00 0.00 0.00 79 1011.3
20260506132100 16 216 12.9 30.6 0.00 0.00 0.00 78 1011.5
20260506131555 16 213 11.3 27.4 0.00 0.00 0.00 79 1011.3
20260506131047 16 234 11.3 24.1 0.00 0.00 0.00 79 1011.4
20260506130816 16 273 11.3 27.4 0.00 0.00 0.00 79 1011.3
20260506130038 16 225 12.9 27.4 0.00 0.00 0.00 79 1011.3
20260506125529 16 198 12.9 27.4 0.00 0.00 0.00 79 1011.3
20260506125026 16 230 12.9 27.4 0.00 0.00 0.00 79 1011.4
20260506124518 16 181 11.3 29.0 0.00 0.00 0.00 80 1011.3
20260506124012 15 175 11.3 29.0 0.00 0.00 0.00 81 1011.3
20260506123506 15 209 11.3 25.7 0.00 0.00 0.00 82 1011.3
20260506123001 15 196 11.3 29.0 0.00 0.00 0.00 81 1011.3
20260506122455 15 0 12.9 29.0 0.00 0.00 0.00 80 1011.3
20260506121948 15 216 11.3 25.7 0.00 0.00 0.00 81 1011.3
20260506121442 15 224 9.7 20.9 0.00 0.00 0.00 82 1011.3
20260506120936 15 293 9.7 24.1 0.00 0.00 0.00 82 1011.2
20260506120431 15 240 9.7 24.1 0.00 0.00 0.00 82 1011.2
20260506115923 15 222 9.7 24.1 0.00 0.00 0.00 82 1011.3
20260506115418 15 217 9.7 24.1 0.00 0.00 0.00 83 1011.2
20260506114912 15 208 8.0 17.7 0.00 0.00 0.00 83 1011.3
20260506114405 15 203 8.0 19.3 0.00 0.00 0.00 84 1011.3
20260506113859 15 234 8.0 19.3 0.00 0.00 0.00 84 1011.3
20260506113355 14 186 9.7 24.1 0.00 0.00 0.00 84 1011.4
20260506113120 14 230 9.7 24.1 0.00 0.00 0.00 85 1011.2
20260506112342 14 175 9.7 20.9 0.00 0.00 0.00 85 1011.3
20260506111836 14 227 8.0 19.3 0.00 0.00 0.00 85 1011.3
20260506111330 14 209 8.0 19.3 0.00 0.00 0.00 85 1011.3
20260506110824 14 202 8.0 19.3 0.00 0.00 0.00 86 1011.2
20260506110318 14 207 8.0 19.3 0.00 0.00 0.00 86 1011.3
20260506105815 14 263 8.0 17.7 0.00 0.00 0.00 87 1011.3
20260506105809 13 223 8.0 24.1 0.00 0.00 0.00 87 1011.2
20260506104800 13 195 9.7 24.1 0.00 0.00 0.00 87 1011.1
20260506104253 13 165 9.7 19.3 0.00 0.00 0.00 88 1011.1
20260506103755 13 202 8.0 19.3 0.00 0.00 0.00 88 1011.1
20260506103527 13 171 9.7 24.1 0.00 0.00 0.00 88 1011.1
20260506102755 13 183 11.3 24.1 0.00 0.00 0.00 88 1011.1
20260506102254 13 189 11.3 24.1 0.00 0.00 0.00 89 1011.1
20260506101755 13 0 9.7 24.1 0.00 0.00 0.00 89 1011.1
20260506101253 13 188 8.0 19.3 0.00 0.00 0.00 89 1011.0
20260506100752 13 221 8.0 17.7 0.00 0.00 0.00 89 1011.0
20260506100252 13 192 8.0 17.7 0.00 0.00 0.00 89 1010.9
20260506095753 13 218 8.0 17.7 0.00 0.00 0.00 89 1010.8
20260506095255 13 201 8.0 16.1 0.00 0.00 0.00 89 1010.8
20260506094752 13 231 8.0 17.7 0.00 0.00 0.00 89 1010.8
20260506094254 13 246 8.0 17.7 0.00 0.00 0.00 89 1011.0
20260506093756 13 190 8.0 20.9 0.00 0.00 0.00 89 1011.0
20260506093528 12 170 8.0 20.9 0.00 0.00 0.00 89 1011.0
20260506093026 13 221 8.0 22.5 0.00 0.00 0.00 89 1011.0
20260506092252 13 177 8.0 22.5 0.00 0.00 0.00 89 1011.1
20260506091753 13 190 8.0 19.3 0.00 0.00 0.00 89 1011.1
20260506091250 13 215 8.0 19.3 0.00 0.00 0.00 89 1011.2
20260506090752 13 240 9.7 19.3 0.00 0.00 0.00 89 1011.1
20260506090252 13 244 9.7 19.3 0.00 0.00 0.00 88 1011.3
20260506085751 13 212 9.7 19.3 0.00 0.00 0.00 89 1011.4
20260506085251 13 235 9.7 17.7 0.00 0.00 0.00 89 1011.4
20260506085023 13 190 8.0 19.3 0.00 0.00 0.00 89 1011.3
20260506084253 13 213 8.0 20.9 0.00 0.00 0.00 88 1011.3
20260506083751 13 242 8.0 20.9 0.00 0.00 0.00 88 1011.4
20260506083251 13 184 8.0 19.3 0.00 0.00 0.00 89 1011.4
20260506083024 13 187 8.0 19.3 0.00 0.00 0.00 88 1011.3
20260506082252 13 212 8.0 19.3 0.00 0.00 0.00 88 1011.3
20260506081751 13 209 8.0 19.3 0.00 0.00 0.00 88 1011.3
20260506081252 13 218 8.0 22.5 0.00 0.00 0.00 88 1011.5
20260506080754 13 193 8.0 22.5 0.00 0.00 0.00 88 1011.4
20260506080251 13 184 8.0 17.7 0.00 0.00 0.00 88 1011.5
20260506073251 13 157 9.7 20.9 0.00 0.00 0.00 87 1011.6
20260506072750 13 217 9.7 22.5 0.00 0.00 0.00 86 1011.6
20260506072523 13 202 11.3 25.7 0.00 0.00 0.00 86 1011.6
20260506071752 13 222 11.3 25.7 0.00 0.00 0.00 86 1011.6
20260506071251 13 245 11.3 25.7 0.00 0.00 0.00 86 1011.6
20260506070745 13 244 9.7 22.5 0.00 0.00 0.00 86 1011.6
20260506070512 13 207 11.3 22.5 0.00 0.00 0.00 87 1011.7
20260506062241 13 209 11.3 24.1 0.00 0.00 0.00 85 1011.6
20260506061742 13 197 11.3 24.1 0.00 0.00 0.00 85 1011.6
20260506061512 13 215 11.3 33.8 0.00 0.00 0.00 84 1011.5
20260506060741 13 209 11.3 33.8 0.00 0.00 0.00 84 1011.6
20260506060242 14 175 11.3 30.6 0.00 0.00 0.00 84 1011.6
20260506051147 14 166 11.3 29.0 0.00 0.00 0.00 83 1012.0
20260506050642 13 201 11.3 29.0 0.00 0.00 0.00 84 1012.0
20260506050407 13 196 9.7 22.5 0.00 0.00 0.00 85 1012.0
20260506045123 13 236 8.0 17.7 0.00 0.00 0.00 85 1012.0
20260506044617 13 194 9.7 17.7 0.00 0.00 0.00 85 1012.1
20260506044111 13 182 9.7 17.7 0.00 0.00 0.00 85 1012.1
20260506043605 13 159 9.7 19.3 0.00 0.00 0.00 85 1012.1
20260506043059 13 196 8.0 20.9 0.00 0.00 0.00 85 1012.1
20260506042554 13 250 8.0 20.9 0.00 0.00 0.00 85 1012.1
20260506042047 13 240 8.0 19.3 0.00 0.00 0.00 85 1012.1
20260506041541 13 238 8.0 17.7 0.00 0.00 0.00 84 1012.1
20260506041036 13 209 8.0 20.9 0.00 0.00 0.00 84 1012.1
20260506040529 13 245 9.7 20.9 0.00 0.00 0.00 84 1012.1
20260506040023 13 184 9.7 17.7 0.00 0.00 0.00 84 1012.1
20260506035519 13 166 8.0 19.3 0.00 0.00 0.00 84 1012.1
20260506035242 13 219 8.0 20.9 0.00 0.00 0.00 84 1012.2
20260506034506 13 205 8.0 20.9 0.00 0.00 0.00 84 1012.2
20260506033959 13 190 8.0 17.7 0.00 0.00 0.00 84 1012.2
20260506033454 13 209 8.0 16.1 0.00 0.00 0.00 84 1012.3
20260506032948 13 168 8.0 20.9 0.00 0.00 0.00 83 1012.3
20260506032441 13 147 8.0 20.9 0.00 0.00 0.00 83 1012.2
20260506031935 13 212 8.0 20.9 0.00 0.00 0.00 83 1012.2
20260506031428 13 153 8.0 20.9 0.00 0.00 0.00 83 1012.3
20260506030924 13 147 8.0 19.3 0.00 0.00 0.00 83 1012.3
20260506030417 13 219 8.0 19.3 0.00 0.00 0.00 83 1012.3
20260506025912 13 192 8.0 24.1 0.00 0.00 0.00 82 1012.3
20260506025405 13 202 9.7 24.1 0.00 0.00 0.00 82 1012.3
20260506024900 14 193 9.7 27.4 0.00 0.00 0.00 81 1012.3
20260506024625 14 269 11.3 27.4 0.00 0.00 0.00 81 1012.3
20260506023848 14 190 11.3 25.7 0.00 0.00 0.00 81 1012.3
20260506023342 14 184 9.7 20.9 0.00 0.00 0.00 80 1012.4
20260506022836 14 155 9.7 20.9 0.00 0.00 0.00 80 1012.3
20260506022601 14 233 9.7 19.3 0.00 0.00 0.00 80 1012.4
20260506021823 14 287 9.7 24.1 0.00 0.00 0.00 79 1012.3
20260506021317 15 205 11.3 33.8 0.00 0.00 0.00 79 1012.4
20260506020812 14 200 11.3 33.8 0.00 0.00 0.00 79 1012.4
20260506020305 14 237 9.7 22.5 0.00 0.00 0.00 80 1012.3
20260506015801 14 211 9.7 22.5 0.00 0.00 0.00 80 1012.3
20260506015525 14 231 8.0 20.9 0.00 0.00 0.00 80 1012.2
20260506014747 14 224 9.7 25.7 0.00 0.00 0.00 79 1012.3
20260506014241 14 191 11.3 25.7 0.00 0.00 0.00 79 1012.3
20260506013735 14 156 11.3 24.1 0.00 0.00 0.00 80 1012.3
20260506013228 14 213 9.7 22.5 0.00 0.00 0.00 80 1012.2
20260506012724 14 215 9.7 17.7 0.00 0.00 0.00 80 1012.2
20260506012217 14 209 8.0 22.5 0.00 0.00 0.00 81 1012.1
20260506011711 14 304 8.0 22.5 0.00 0.00 0.00 81 1012.1
20260506011437 14 200 8.0 22.5 0.00 0.00 0.00 81 1012.0
20260506010659 14 184 9.7 20.9 0.00 0.00 0.00 81 1012.0
20260506010152 14 180 9.7 20.9 0.00 0.00 0.00 81 1011.9
20260506005646 14 253 9.7 24.1 0.00 0.00 0.00 80 1011.8
20260506005141 14 180 11.3 24.1 0.00 0.00 0.00 80 1011.9
20260506004636 14 215 11.3 20.9 0.00 0.00 0.00 80 1011.8
20260506004129 15 190 11.3 27.4 0.00 0.00 0.00 79 1011.7
20260506003622 15 145 11.3 27.4 0.00 0.00 0.00 78 1011.8
20260506003118 15 159 11.3 24.1 0.00 0.00 0.00 78 1011.8
20260506002612 14 211 11.3 24.1 0.00 0.00 0.00 79 1011.9
20260506002105 14 211 11.3 24.1 0.00 0.00 0.00 79 1011.7
20260506001559 14 217 11.3 22.5 0.00 0.00 0.00 79 1011.7
20260506001053 14 166 9.7 20.9 0.00 0.00 0.00 79 1011.6
20260506000548 14 242 9.7 20.9 0.00 0.00 0.00 79 1011.5
20260506000041 14 149 9.7 22.5 0.00 0.00 0.00 78 1011.5
20260505235535 14 211 9.7 22.5 0.00 0.00 0.00 78 1011.5
20260505235030 15 245 11.3 25.7 0.00 0.00 0.00 77 1011.4
20260505234523 15 154 9.7 25.7 0.00 0.00 0.00 77 1011.4
20260505234018 15 228 9.7 22.5 0.00 0.00 0.00 76 1011.4
20260505233742 15 192 11.3 25.7 0.00 0.00 0.00 75 1011.4
20260505233005 15 150 11.3 25.7 0.00 0.00 0.00 75 1011.4
20260505232500 15 173 12.9 25.7 0.00 0.00 0.00 74 1011.4
20260505232225 15 143 12.9 25.7 0.00 0.00 0.00 73 1011.1
20260505231448 16 229 11.3 27.4 0.00 0.00 0.00 73 1011.2
20260505230941 15 244 9.7 27.4 0.00 0.00 0.00 73 1011.2
20260505230434 15 166 11.3 24.1 0.00 0.00 0.00 73 1011.2
20260505230202 15 192 11.3 24.1 0.00 0.00 0.00 73 1011.1
20260505225423 16 140 9.7 19.3 0.00 0.00 0.00 72 1011.0
20260505224918 16 103 11.3 25.7 0.00 0.00 0.00 71 1010.9
20260505224411 16 181 11.3 25.7 0.00 0.00 0.00 70 1010.9
20260505223905 17 182 11.3 25.7 0.00 0.00 0.00 69 1010.9
20260505223400 17 223 12.9 27.4 0.00 0.00 0.00 67 1011.0
20260505222852 17 246 12.9 32.2 0.00 0.00 0.00 67 1010.9
20260505222346 17 169 12.9 32.2 0.00 0.00 0.00 67 1010.9
20260505221842 17 161 12.9 27.4 0.00 0.00 0.00 67 1010.9
20260505221336 17 200 12.9 35.4 0.00 0.00 0.00 67 1010.9
20260505220829 17 192 12.9 37.0 0.00 0.00 0.00 66 1010.9
20260505220323 17 126 14.5 37.0 0.00 0.00 0.00 66 1010.9
20260505215824 17 230 14.5 35.4 0.00 0.00 0.00 67 1010.8
20260505215321 17 169 14.5 37.0 0.00 0.00 0.00 67 1010.8
20260505214821 17 221 14.5 30.6 0.00 0.00 0.00 69 1010.7
20260505214555 17 198 14.5 30.6 0.00 0.00 0.00 69 1010.6
20260505213818 17 230 14.5 32.2 0.00 0.00 0.00 69 1010.7
20260505213320 17 194 12.9 33.8 0.00 0.00 0.00 70 1010.5
20260505212819 17 257 12.9 33.8 0.00 0.00 0.00 70 1010.6
20260505212318 17 138 14.5 29.0 0.00 0.00 0.00 70 1010.5